STARLINK-34317, 64162

Orbit data source: Space-Track

STARLINK-34317, 64162 is a payload satellite owned by SpaceX/Seattle (US) in SSO that was launched on Tue, 27 May 2025 UTC via an FALCON 9 launch vehicle from the Air Force Western Test Range (AFWTR). Payload-class satellites include a variety of spacecraft equipped with specific instruments for various scientific and technological missions. These include communications satellites like Starlink; space stations such as the ISS; scientific satellites like the Hubble; Earth observation satellites from companies like Planet Labs, Umbra, and HawkEye 360; GPS; miniature CubeSats for education and research; and military/defense satellites.

Loading next visibility...
Identifier
64162, 2025-112S
Orbit
SSO
Country
Flag of USUS
Related business
Manufacturer
SpaceX/Seattle
Mission
Operational Commercial Communications
Bus & Motor
STARLINK V2MO, Unknown motor
Mass
575 kg wet, ~530 kg dry
Launch date (UTC)
2025-05-27 (1 year ago)
Launch vehicle
FALCON 9
Launch site
Air Force Western Test Range (AFWTR)
Object type
Payload
Rocket body
Debris
Shape & HBR
Box + 2 Pan, 17.7 m
Radar Cross Section
36.964 m², Large (>1 m²)

Expand to show TLE details & history
Last TLE update: 18 hours ago

TLE from 18 hours ago
0 STARLINK-34317
1 64162U 25112S   26192.64141461  .00003244  00000-0  22848-3 0  9997
2 64162  97.2835 241.8390 0001253 126.5605 233.5738 15.05670783 61963
Epoch: 2026-07-11T15:23Z
TLE epoch observation values (Epoch: 2026-07-11T15:23:38.222Z)
Latitude
-0.00003°
Longitude
81.37803°
Altitude
553.037 km
Speed
7.585 km/s
True Right ascension
16h 07m 21s
True Declination
0° 00' 00"
Sunlit
Object was in full shadow at epoch
Visualization orbit readout
Latitude
Unknown
Longitude
Unknown
Altitude
Unknown
Speed
Unknown
Apparent Right ascension
Unknown
Apparent Declination
Unknown
Sunlit
N/A
Visualization observer readout
Local Sidereal Time
21:17:41
Azimuth
Unknown
Elevation
Unknown
Doppler factor
Unknown
Orbital elements
Apogee altitude
547.295 km
Perigee altitude
545.56 km
Semi-major axis
6,924.564 km
Eccentricity
0.00013
Inclination
97.2835°
RAAN
241.839°
Arg. of periapsis
126.5605°
True anomaly
233.56225°
Mean anomaly
233.5738°
Eccentric anomaly
233.56802°
Mean motion
3.76664 °/min
Orbital period
95.58 mins
BSTAR
0.00022848
Loading maneuver chart data...
Computing Atmospheric mass density...
Loading historical data...
Loading historical data...
Loading historical data...
Loading historical data...
Loading historical data...
Loading historical data...
Loading historical data...

Documentation

Showing up to 5 results
|